{"data":{"norad_id":59923,"epoch":"2026-09-20T14:52:26.984928Z","epoch_age_seconds":164143,"freshness":"FRESH","line1":"1 59923U 24106B   26263.61975677 -.00000130  00000+0  47842-5 0  9992","line2":"2 59923  43.0020 311.7623 0001186 274.9170  85.1546 15.27581809130388","mean_motion":15.27581809,"eccentricity":0.0001186,"inclination_deg":43.002,"raan_deg":311.7623,"arg_perigee_deg":274.917,"mean_anomaly_deg":85.1546,"bstar":4.7842e-6,"rev_number":13038,"period_min":94.266637080646,"perigee_km":482.22994321966,"apogee_km":483.85741527677,"semimajor_km":6861.1806792482,"source":"CELESTRAK","updated_at":"2026-09-22T09:00:49.110794Z"}}